Location: Ecklingerode
(51.5036°N, 10.3122°E)
Time: 06:56:50
(UTC+00:00)

Lacrosse 5 - Pass Details

Date: 29 October 2020
Orbit: 714 x 725 km, 57.0° (Epoch: 30 November)

Event Time Altitude Azimuth Distance (km) Brightness Sun altitude
Rises 18:12:10 0° 293° (WNW) 3,121 6.4 -21.6°
Reaches altitude 10° 18:14:36 10° 298° (WNW) 2,199 5.3 -21.9°
Maximum altitude 18:19:34 55° 17° (NNE) 863 2.1 -22.7°
Enters shadow 18:20:14 50° 47° (NE) 905 2.1 -22.8°
